[[{"header":{"parameterUnit":"m.s-1","parameterCategory":1,"la1":30.2991,"la2":30.254,"lo1":-89.0895,"lo2":-89.0444,"dy":0.0017,"dx":0.0017,"nx":28,"ny":28,"refTime":"2025-12-30T03:00:00:Z","depth":0,"parameterNumber":2,"parameterNumberName":"U-component_of_WINDS"},"data":[0,0,0,0,0,0,0,0,0,0,0,0,0,0,0,0,0,0,0,0,0,0,0,0,0,0,0,0,0,0,0,0,0,0,0,0,0,0,0,0,0,0,0,0,0,0,0,0,0,0,0,0,0,0,0,0,0,0,1.3514,1.3513,0,1.3479,1.3478,1.3478,1.3466,1.3466,1.3467,1.3467,1.3428,1.3427,1.3425,0,0,0,0,0,0,0,0,0,0,0,0,0,1.3568,1.3567,1.3514,1.3513,1.3513,1.3479,1.3478,1.3478,1.3466,1.3466,1.3467,1.3467,1.3428,1.3427,1.3425,0,0,0,0,0,0,0,0,0,0,0,0,0,1.3539,1.3566,1.3514,1.3503,1.3502,1.3479,1.3478,1.3478,1.3466,1.3466,1.3467,1.3467,1.3429,1.3427,1.3425,1.341,0,0,1.342,1.3419,0,0,0,0,0,0,0,0,1.3541,1.3537,1.3505,1.3504,1.3502,1.3477,1.3483,1.3455,1.3466,1.348,1.3467,1.3467,1.3444,1.3441,1.3434,1.3408,1.3406,1.342,1.3419,1.3418,1.3417,0,0,0,0,0,0,0,1.3543,1.3539,1.35,1.3505,1.3503,1.3499,1.3495,1.3478,1.3461,1.3478,1.3477,1.3474,1.3443,1.3435,1.3433,1.3406,1.342,1.3418,1.3417,1.3416,1.3365,1.3364,0,0,0,0,0,0,1.3547,1.3541,1.3501,1.3499,1.3523,1.3498,1.3494,1.3485,1.3461,1.3458,1.3473,1.3473,1.3438,1.3435,1.3431,1.3411,1.3418,1.3416,1.3415,1.3365,1.3365,1.3364,0,0,0,0,0,0,1.3548,1.3544,1.3502,1.3519,1.3514,1.3497,1.3487,1.3484,1.3476,1.3457,1.3454,1.3469,1.3438,1.3434,1.3415,1.341,1.3415,1.3414,1.3365,1.3365,1.3365,1.3371,0,0,0,0,0,0,1.355,1.3544,1.3539,1.3519,1.3513,1.3488,1.3487,1.3483,1.3474,1.3473,1.3452,1.3449,1.3438,1.3418,1.3413,1.3407,1.3412,1.3366,1.3365,1.3365,1.3371,1.3371,1.337,0,0,0,0,0,1.3552,1.3541,1.3539,1.3534,1.3506,1.3487,1.3484,1.3473,1.3473,1.3467,1.3455,1.3449,1.3411,1.3416,1.3411,1.3404,1.3366,1.3365,1.3365,1.3371,1.3371,1.337,0,0,0,0,0,0,1.3559,1.3539,1.3535,1.3518,1.3505,1.3486,1.3477,1.3472,1.3458,1.3457,1.3443,1.3439,1.3421,1.3411,1.3417,1.3388,1.3388,1.3387,1.3395,1.3394,1.3394,1.3397,1.3411,0,0,0,0,0,1.3559,1.3547,1.3529,1.3516,1.3509,1.3495,1.3486,1.3479,1.3464,1.3458,1.3444,1.3429,1.3413,1.3403,1.3388,1.337,1.3365,1.3363,1.3362,1.3362,1.336,1.335,1.3348,1.3362,1.3362,1.3362,0,0,1.3559,1.3546,1.3538,1.3517,1.3506,1.3492,1.349,1.3476,1.3465,1.3455,1.3437,1.3427,1.3409,1.339,1.3381,1.3381,1.3356,1.3361,1.3361,1.336,1.3349,1.3347,1.3346,1.3362,1.3362,1.3362,0,0,1.355,1.354,1.3527,1.3516,1.3499,1.349,1.3487,1.3468,1.3461,1.3443,1.3435,1.3422,1.3396,1.3384,1.3374,1.3361,1.3355,1.3357,1.3355,1.3344,1.3343,1.3342,1.3337,1.3335,1.3355,1.3355,1.3355,0,1.3551,1.3531,1.3521,1.3508,1.3498,1.349,1.3477,1.3466,1.3445,1.3438,1.3438,1.3405,1.3393,1.3371,1.3368,1.3361,1.3356,1.3359,1.3344,1.3343,1.3342,1.3337,1.3335,1.3356,1.3356,1.3356,1.3356,0,1.3533,1.3519,1.3511,1.3492,1.3482,1.3468,1.3455,1.3446,1.344,1.343,1.3411,1.3396,1.3377,1.3372,1.3365,1.3349,1.3349,1.3347,1.3347,1.3341,1.3336,1.3334,1.3356,1.3356,1.3356,1.3356,0,0,1.3527,1.3503,1.35,1.3491,1.3473,1.3461,1.3448,1.3431,1.3422,1.3408,1.3395,1.3374,1.3372,1.3361,1.3353,1.3344,1.3334,1.3342,1.3342,1.3341,1.3315,1.3316,1.3314,1.333,1.333,1.333,1.3316,0,1.3516,1.3492,1.3482,1.3462,1.3449,1.3441,1.3429,1.3415,1.3406,1.3393,1.3382,1.3367,1.3366,1.3359,1.335,1.3337,1.3328,1.3338,1.3317,1.3317,1.3321,1.3311,1.3312,1.33,1.3314,1.3314,1.3313,0,1.3499,1.3486,1.3465,1.3447,1.3442,1.3431,1.3414,1.3402,1.3387,1.338,1.3369,1.3361,1.3345,1.3347,1.3325,1.3332,1.3323,1.3316,1.3315,1.3312,1.3314,1.3307,1.3296,1.3293,1.331,1.331,1.3311,0,1.3496,1.3473,1.3457,1.345,1.343,1.3422,1.3413,1.3398,1.3389,1.3374,1.3367,1.3351,1.3341,1.3328,1.3316,1.3319,1.3295,1.3296,1.3288,1.3289,1.3283,1.3283,1.3269,1.3279,1.3279,1.3279,1.3279,0,1.3484,1.3471,1.3456,1.3446,1.3431,1.342,1.3406,1.3396,1.3383,1.337,1.3362,1.3351,1.3336,1.3322,1.3313,1.3295,1.3291,1.3285,1.3283,1.3285,1.3286,1.3278,1.3279,1.3278,1.3278,1.3278,1.3278,0,1.3478,1.3467,1.345,1.3432,1.3428,1.3417,1.3402,1.3392,1.3382,1.3367,1.3362,1.3347,1.333,1.3318,1.3296,1.3289,1.3271,1.3268,1.3276,1.3275,1.3267,1.3268,1.3247,1.3244,1.3256,1.3256,1.3256,0,1.3471,1.3461,1.3443,1.3434,1.3426,1.3412,1.3402,1.3391,1.3381,1.3363,1.3355,1.3338,1.3324,1.3298,1.3284,1.3267,1.3264,1.3258,1.3261,1.3264,1.3263,1.3263,1.3262,1.3257,1.3257,1.3257,1.3257,0,1.3458,1.3453,1.344,1.3425,1.3414,1.3402,1.3389,1.3382,1.3369,1.3358,1.3341,1.333,1.3309,1.3291,1.3273,1.3263,1.3257,1.3256,1.3253,1.3255,1.326,1.3257,1.3274,1.3256,1.3256,1.3256,1.3256,1.3256,1.345,1.3441,1.3427,1.3412,1.3402,1.339,1.338,1.337,1.3356,1.3338,1.3332,1.3315,1.3299,1.3275,1.3264,1.325,1.325,1.3246,1.3245,1.3244,1.3243,1.3263,1.3247,1.3247,1.3247,1.3247,1.3247,0,1.3437,1.3428,1.3414,1.3397,1.3386,1.3383,1.3368,1.3359,1.3344,1.3331,1.3317,1.3298,1.3281,1.3267,1.325,1.3241,1.3238,1.3237,1.3237,1.3234,1.3245,1.3249,1.324,1.324,1.324,1.324,1.324,1.324,1.3428,1.3412,1.3406,1.3384,1.3375,1.3359,1.3351,1.334,1.3329,1.3308,1.3295,1.3286,1.3272,1.3254,1.3238,1.3234,1.3228,1.3227,1.3222,1.3233,1.3233,1.3234,1.3238,1.3226,1.3226,1.3213,1.3212,1.3212]},{"header":{"parameterUnit":"m.s-1","parameterCategory":1,"la1":30.2991,"la2":30.254,"lo1":-89.0895,"lo2":-89.0444,"dy":0.0017,"dx":0.0017,"nx":28,"ny":28,"refTime":"2025-12-30T03:00:00:Z","depth":0,"parameterNumber":3,"parameterNumberName":"V-component_of_WINDS"},"data":[0,0,0,0,0,0,0,0,0,0,0,0,0,0,0,0,0,0,0,0,0,0,0,0,0,0,0,0,0,0,0,0,0,0,0,0,0,0,0,0,0,0,0,0,0,0,0,0,0,0,0,0,0,0,0,0,0,0,-4.2541,-4.2543,0,-4.2756,-4.2758,-4.2761,-4.2724,-4.272,-4.2717,-4.2713,-4.2933,-4.2942,-4.2951,0,0,0,0,0,0,0,0,0,0,0,0,0,-4.2097,-4.2105,-4.2541,-4.2543,-4.2546,-4.2755,-4.2758,-4.2761,-4.2725,-4.272,-4.2716,-4.2711,-4.293,-4.2941,-4.2952,0,0,0,0,0,0,0,0,0,0,0,0,0,-4.2299,-4.2108,-4.254,-4.2553,-4.2556,-4.2755,-4.2758,-4.2762,-4.2726,-4.272,-4.2715,-4.2709,-4.2926,-4.294,-4.2953,-4.3152,0,0,-4.2996,-4.3002,0,0,0,0,0,0,0,0,-4.2287,-4.2315,-4.2548,-4.2553,-4.2557,-4.2707,-4.2682,-4.2893,-4.2727,-4.2661,-4.2713,-4.2707,-4.2862,-4.2881,-4.2934,-4.3163,-4.3172,-4.2997,-4.3006,-4.3012,-4.3016,0,0,0,0,0,0,0,-4.2273,-4.2306,-4.2626,-4.2552,-4.2557,-4.2548,-4.257,-4.2722,-4.2791,-4.2667,-4.2665,-4.2691,-4.2863,-4.292,-4.2939,-4.3175,-4.2997,-4.3009,-4.3018,-4.3024,-4.3577,-4.3583,0,0,0,0,0,0,-4.2256,-4.2294,-4.2619,-4.2632,-4.2405,-4.256,-4.2585,-4.2665,-4.2789,-4.2803,-4.2695,-4.2688,-4.2899,-4.2922,-4.2946,-4.3187,-4.3012,-4.3025,-4.3033,-4.3571,-4.3578,-4.3585,0,0,0,0,0,0,-4.2246,-4.2285,-4.261,-4.2463,-4.2503,-4.2574,-4.2663,-4.2672,-4.2729,-4.281,-4.2822,-4.2741,-4.2896,-4.2926,-4.3101,-4.3194,-4.3031,-4.3044,-4.3563,-4.3573,-4.3582,-4.367,0,0,0,0,0,0,-4.2234,-4.2282,-4.2359,-4.2465,-4.2511,-4.2762,-4.2669,-4.268,-4.2753,-4.2746,-4.2857,-4.2869,-4.2894,-4.308,-4.3115,-4.321,-4.3055,-4.3555,-4.3568,-4.3579,-4.366,-4.3682,-4.3701,0,0,0,0,0,-4.2218,-4.2375,-4.2363,-4.2402,-4.2609,-4.2768,-4.2794,-4.2819,-4.2761,-4.2838,-4.289,-4.2866,-4.3178,-4.3099,-4.3137,-4.3238,-4.355,-4.3564,-4.3578,-4.365,-4.3677,-4.37,0,0,0,0,0,0,-4.2278,-4.2389,-4.2377,-4.2573,-4.2661,-4.2761,-4.286,-4.2847,-4.2954,-4.2943,-4.2968,-4.2994,-4.3171,-4.3222,-4.3131,-4.3437,-4.3356,-4.3378,-4.3397,-4.3424,-4.3444,-4.3428,-4.3067,0,0,0,0,0,-4.2314,-4.2434,-4.2525,-4.2689,-4.2734,-4.2789,-4.286,-4.2871,-4.2963,-4.3,-4.3065,-4.3156,-4.3274,-4.3352,-4.3465,-4.3666,-4.369,-4.3755,-4.3775,-4.3792,-4.3811,-4.3921,-4.3951,-4.3632,-4.3632,-4.3631,0,0,-4.239,-4.2466,-4.254,-4.2703,-4.2773,-4.2896,-4.2821,-4.2955,-4.3047,-4.3021,-4.319,-4.324,-4.3343,-4.3532,-4.3618,-4.358,-4.3904,-4.381,-4.3822,-4.3833,-4.3938,-4.3969,-4.3995,-4.3641,-4.364,-4.3638,0,0,-4.2591,-4.2661,-4.2805,-4.2876,-4.2983,-4.3018,-4.3053,-4.3155,-4.3188,-4.3358,-4.3341,-4.345,-4.3653,-4.3727,-4.3791,-4.4019,-4.4,-4.4055,-4.4163,-4.4269,-4.4295,-4.4317,-4.4398,-4.4427,-4.4074,-4.4074,-4.4074,0,-4.2672,-4.2858,-4.2881,-4.3017,-4.3089,-4.307,-4.3216,-4.3284,-4.3422,-4.3472,-4.3427,-4.3682,-4.3749,-4.3955,-4.401,-4.4063,-4.4103,-4.4043,-4.4289,-4.4312,-4.4333,-4.4411,-4.4441,-4.408,-4.4079,-4.4079,-4.4078,0,-4.2952,-4.3081,-4.3184,-4.3318,-4.3402,-4.3542,-4.3585,-4.3667,-4.3671,-4.3711,-4.3884,-4.3964,-4.4093,-4.4143,-4.4148,-4.4349,-4.4322,-4.4283,-4.4202,-4.4369,-4.4443,-4.4473,-4.4089,-4.4086,-4.4085,-4.4083,0,0,-4.3199,-4.3342,-4.338,-4.344,-4.3556,-4.3656,-4.3794,-4.3921,-4.399,-4.4086,-4.4202,-4.4374,-4.4339,-4.4412,-4.4424,-4.4518,-4.4693,-4.4467,-4.447,-4.4507,-4.4919,-4.4949,-4.4983,-4.4681,-4.4687,-4.4691,-4.4911,0,-4.3411,-4.3657,-4.3681,-4.3901,-4.402,-4.4003,-4.4124,-4.4208,-4.4249,-4.4355,-4.44,-4.4522,-4.4465,-4.4509,-4.4601,-4.4652,-4.4776,-4.4637,-4.479,-4.4795,-4.4765,-4.5021,-4.5053,-4.5256,-4.494,-4.4945,-4.4948,0,-4.3692,-4.3796,-4.4028,-4.4126,-4.4176,-4.4285,-4.4402,-4.4504,-4.4598,-4.4621,-4.4702,-4.4702,-4.4845,-4.4757,-4.4954,-4.4858,-4.4922,-4.4956,-4.4965,-4.4981,-4.4882,-4.5044,-4.5322,-4.5353,-4.4994,-4.499,-4.4987,0,-4.3849,-4.4046,-4.421,-4.4262,-4.4381,-4.4457,-4.451,-4.4599,-4.4673,-4.4775,-4.4823,-4.494,-4.5005,-4.5096,-4.5127,-4.5061,-4.5322,-4.5237,-4.5345,-4.5344,-4.5402,-4.5398,-4.5694,-4.5442,-4.5441,-4.5441,-4.544,0,-4.4084,-4.4227,-4.4282,-4.4383,-4.4542,-4.4568,-4.4724,-4.4773,-4.4852,-4.4961,-4.4954,-4.5057,-4.5092,-4.5201,-4.5227,-4.5385,-4.5414,-4.5437,-4.5442,-4.5438,-4.5435,-4.5481,-4.5467,-4.5449,-4.5447,-4.5446,-4.5444,0,-4.4287,-4.433,-4.4508,-4.4605,-4.4633,-4.4745,-4.4828,-4.4926,-4.4964,-4.5103,-4.5137,-4.5198,-4.5326,-4.5366,-4.552,-4.5537,-4.5722,-4.5715,-4.5691,-4.5692,-4.5797,-4.5787,-4.6133,-4.618,-4.5897,-4.5899,-4.5902,0,-4.4435,-4.4544,-4.4653,-4.4726,-4.4781,-4.4899,-4.4975,-4.5003,-4.5082,-4.5197,-4.528,-4.5406,-4.5509,-4.5714,-4.5772,-4.5889,-4.5885,-4.5998,-4.5902,-4.5895,-4.5887,-4.588,-4.5891,-4.6016,-4.6019,-4.6021,-4.6023,0,-4.4692,-4.4708,-4.4817,-4.4934,-4.5024,-4.5117,-4.5207,-4.5267,-4.5309,-4.5398,-4.5528,-4.5608,-4.5765,-4.589,-4.601,-4.6063,-4.6051,-4.6053,-4.6084,-4.6082,-4.6063,-4.6075,-4.5741,-4.6045,-4.6043,-4.6041,-4.604,-4.6039,-4.4872,-4.4968,-4.506,-4.5181,-4.5252,-4.5336,-4.5432,-4.5482,-4.5591,-4.5722,-4.5732,-4.5873,-4.5963,-4.6122,-4.6181,-4.6292,-4.6259,-4.6304,-4.6316,-4.6327,-4.6335,-4.6045,-4.6313,-4.6313,-4.6312,-4.6312,-4.6311,0,-4.513,-4.5187,-4.5299,-4.5425,-4.552,-4.55,-4.5598,-4.5679,-4.5803,-4.5888,-4.5989,-4.6139,-4.626,-4.6327,-4.6448,-4.6523,-4.6521,-4.6554,-4.6549,-4.6562,-4.6358,-4.6319,-4.6554,-4.6554,-4.6554,-4.6554,-4.6554,-4.6554,-4.5275,-4.5437,-4.5463,-4.5659,-4.5715,-4.5853,-4.5911,-4.5988,-4.6056,-4.6224,-4.6324,-4.6367,-4.6445,-4.6571,-4.6681,-4.6697,-4.6743,-4.678,-4.6793,-4.6601,-4.6576,-4.6553,-4.6516,-4.6789,-4.679,-4.6988,-4.699,-4.6991]}]]